Houston, TX

8:28 PM CDT on July 23, 2017 (GMT -0500)
Hobby

Weather History for KHOU - March, 2014

Change the Weather History Date:

Saturday, March 15, 2014

  Actual Average Record
Temperature  
Mean Temperature 66 °F 63 °F  
Max Temperature 69 °F 73 °F 89 °F (2008)
Min Temperature 62 °F 52 °F 32 °F (1999)
Degree Days  
Heating Degree Days 0 5  
Month to date heating degree days 158 88  
Since 1 July heating degree days 1638 1276  
Cooling Degree Days 1 2  
Month to date cooling degree days 11 28  
Year to date cooling degree days 45 66  
Growing Degree Days 16 (Base 50)    
Moisture  
Dew Point 63 °F    
Average Humidity 95    
Maximum Humidity 100    
Minimum Humidity 90    
Precipitation  
Precipitation 0.56 in 0.11 in 2.06 in (1974)
Month to date precipitation 2.21 1.69  
Year to date precipitation 5.56 8.27  
Sea Level Pressure  
Sea Level Pressure 29.86 in    
Wind  
Wind Speed 7 mph (SE)    
Max Wind Speed 18 mph    
Max Gust Speed 23 mph    
Visibility 6 miles    
Events Rain    
T = Trace of Precipitation, MM = Missing Value Source: NWS Daily Summary

Daily Weather History Graph

Daily Weather History Graph

Search for Another Location

Airport or City:

Trip Planner

Search our weather history database for the weather conditions in past years. The results will help you decide how hot, cold, wet, or windy it might be!

Date:

Astronomy

Mar. 15, 2014 Rise Set
Actual Time 7:30 AM CDT 7:29 PM CDT
Civil Twilight 7:07 AM CDT 7:53 PM CDT
Nautical Twilight 6:39 AM CDT 8:20 PM CDT
Astronomical Twilight 6:11 AM CDT 8:48 PM CDT
Moon 6:50 PM CDT (3/15) 6:40 AM CDT (3/15)
Length of Visible Light 12h 46m
Length of Day
11h 58m
Waxing Gibbous, 99% of the Moon is Illuminated
Mar 15
Waxing Gibbous
Mar 16
Full
Mar 23
Last Quarter
Mar 30
New
Apr 7
First Quarter

Hourly Weather History & Observations

Time (CDT) Temp. Dew Point Humidity Pressure Visibility Wind Dir Wind Speed Gust Speed Precip Events Conditions
12:53 AM 64.9 °F 60.1 °F 84% 30.04 in 9.0 mi ESE 3.5 mph - N/A   Overcast
1:53 AM 64.0 °F 60.1 °F 87% 30.02 in 9.0 mi ENE 4.6 mph - N/A   Overcast
2:53 AM 64.0 °F 60.1 °F 87% 30.00 in 8.0 mi ESE 3.5 mph - N/A   Overcast
3:53 AM 64.0 °F 61.0 °F 90% 29.97 in 8.0 mi ESE 4.6 mph - N/A   Overcast
4:53 AM 64.0 °F 61.0 °F 90% 29.97 in 8.0 mi SE 4.6 mph - N/A   Overcast
5:53 AM 64.0 °F 61.0 °F 90% 29.96 in 8.0 mi East 4.6 mph - N/A   Overcast
6:15 AM 62.6 °F 60.8 °F 94% 29.95 in 8.0 mi ESE 3.5 mph - N/A   Overcast
6:53 AM 64.0 °F 61.0 °F 90% 29.97 in 8.0 mi East 3.5 mph - N/A   Overcast
7:53 AM 64.0 °F 62.1 °F 93% 29.97 in 8.0 mi Calm Calm - N/A   Overcast
8:53 AM 64.9 °F 63.0 °F 93% 29.98 in 10.0 mi ESE 4.6 mph - N/A   Overcast
9:53 AM 66.9 °F 64.0 °F 90% 29.98 in 8.0 mi ESE 8.1 mph - 0.00 in   Overcast
10:53 AM 66.9 °F 64.0 °F 90% 29.96 in 10.0 mi East 9.2 mph - 0.00 in   Overcast
11:15 AM 68.0 °F 64.4 °F 88% 29.94 in 10.0 mi ESE 6.9 mph - 0.01 in   Overcast
11:53 AM 70.0 °F 64.0 °F 81% 29.94 in 10.0 mi SE 10.4 mph - 0.01 in   Overcast
12:29 PM 69.8 °F 64.4 °F 83% 29.92 in 7.0 mi SE 8.1 mph - 0.00 in Rain Light Rain
12:53 PM 66.9 °F 64.0 °F 90% 29.92 in 2.5 mi SE 11.5 mph - 0.03 in Rain Light Rain
1:01 PM 66.2 °F 64.4 °F 94% 29.90 in 1.5 mi ESE 8.1 mph - 0.01 in Rain Light Rain
1:08 PM 66.2 °F 64.4 °F 94% 29.90 in 1.0 mi SE 8.1 mph - 0.03 in Rain Rain
1:43 PM 66.2 °F 64.4 °F 94% 29.88 in 1.0 mi SE 9.2 mph - 0.15 in Rain Rain
1:53 PM 66.9 °F 64.9 °F 93% 29.89 in 0.8 mi SE 9.2 mph 19.6 mph 0.19 in Rain Light Rain
2:20 PM 66.2 °F 64.4 °F 94% 29.86 in 1.5 mi SSE 11.5 mph - 0.07 in Rain Light Rain
2:32 PM 66.2 °F 64.4 °F 94% 29.85 in 3.0 mi South 13.8 mph - 0.07 in Rain Light Rain
2:53 PM 68.0 °F 64.9 °F 90% 29.84 in 10.0 mi SE 9.2 mph - 0.07 in   Overcast
3:53 PM 69.1 °F 64.9 °F 87% 29.82 in 10.0 mi SE 8.1 mph - N/A   Overcast
4:53 PM 68.0 °F 64.0 °F 87% 29.78 in 10.0 mi SSE 12.7 mph - 0.00 in Rain Light Rain
5:08 PM 68.0 °F 64.4 °F 88% 29.76 in 7.0 mi SSE 12.7 mph - 0.05 in Rain Light Rain
5:17 PM 68.0 °F 64.4 °F 88% 29.77 in 2.0 mi South 10.4 mph - 0.09 in Rain Rain
5:21 PM 68.0 °F 64.4 °F 88% 29.78 in 1.5 mi South 10.4 mph - 0.10 in Rain Heavy Rain
5:28 PM 66.2 °F 64.4 °F 94% 29.76 in 1.5 mi SE 8.1 mph - 0.15 in Rain Heavy Rain
5:44 PM 66.2 °F 64.4 °F 94% 29.76 in 6.0 mi South 6.9 mph - 0.17 in Rain Light Rain
5:53 PM 66.9 °F 64.9 °F 93% 29.78 in 7.0 mi SE 8.1 mph - 0.17 in Rain Light Rain
6:43 PM 66.2 °F 64.4 °F 94% 29.75 in 10.0 mi South 6.9 mph - 0.00 in Rain Light Rain
6:50 PM 69.8 °F 17.6 °F 14% 29.75 in 10.0 mi NW 24.2 mph 29.9 mph N/A   Mostly Cloudy
6:53 PM 66.9 °F 64.9 °F 93% 29.76 in 8.0 mi SSE 8.1 mph - 0.00 in   Overcast
7:16 PM 68.0 °F 64.4 °F 88% 29.75 in 6.0 mi South 6.9 mph - 0.02 in Rain Light Rain
7:22 PM 66.2 °F 64.4 °F 94% 29.74 in 4.0 mi South 9.2 mph - 0.04 in Rain Heavy Rain
7:53 PM 66.9 °F 64.9 °F 93% 29.76 in 8.0 mi SSE 6.9 mph - 0.04 in   Overcast
8:24 PM 66.2 °F 64.4 °F 94% 29.75 in 8.0 mi South 9.2 mph - N/A   Overcast
8:53 PM 68.0 °F 66.0 °F 93% 29.76 in 6.0 mi South 8.1 mph - 0.01 in   Overcast
9:53 PM 68.0 °F 66.0 °F 93% 29.76 in 6.0 mi SSW 10.4 mph - N/A   Overcast
10:40 PM 69.8 °F 66.2 °F 88% 29.75 in 6.0 mi SSW 12.7 mph - N/A   Overcast
10:53 PM 69.1 °F 66.0 °F 90% 29.76 in 6.0 mi South 10.4 mph - N/A   Overcast
11:53 PM 69.1 °F 66.9 °F 93% 29.77 in 6.0 mi SSW 11.5 mph - N/A   Overcast